DW3929 Weather Reports


Display with metric or nautical units.
time (UTC)temp
F
wind
direction
speed
MPH
gust
MPH
rain 1hr
in
rain 24hr
in
rain mn
in
humidity
%
barometer
mb
20260831215817 100 360 2.0 5.0 0.00 0.00 0.00 45 1012.1
20260831215319 100 360 2.0 9.0 0.00 0.00 0.00 51 1012.1
20260831214818 99 360 5.0 9.0 0.00 0.00 0.00 44 1012.2
20260831214338 97 360 4.0 6.0 0.00 0.00 0.00 48 1012.2
20260831213815 96 360 4.0 6.0 0.00 0.00 0.00 48 1012.3
20260831213314 96 360 2.0 6.0 0.00 0.00 0.00 51 1012.4
20260831212813 96 360 2.0 5.0 0.00 0.00 0.00 53 1012.5
20260831212313 96 360 1.0 4.0 0.00 0.00 0.00 49 1012.6
20260831211813 96 360 1.0 3.0 0.00 0.00 0.00 52 1012.6
20260831211312 97 360 0.0 3.0 0.00 0.00 0.00 50 1012.6
20260831210831 97 360 1.0 6.0 0.00 0.00 0.00 52 1012.8
20260831210331 98 360 3.0 10.0 0.00 0.00 0.00 49 1012.9
20260831205830 100 360 3.0 10.0 0.00 0.00 0.00 50 1012.9
20260831205328 101 360 3.0 9.0 0.00 0.00 0.00 46 1013.0
20260831204826 102 360 2.0 6.0 0.00 0.00 0.00 42 1013.0
20260831204326 102 360 3.0 8.0 0.00 0.00 0.00 45 1013.1
20260831203826 102 360 3.0 8.0 0.00 0.00 0.00 41 1013.2
20260831203326 102 360 1.0 9.0 0.00 0.00 0.00 43 1013.4
20260831202845 101 360 2.0 9.0 0.00 0.00 0.00 45 1013.4
20260831202323 101 360 4.0 9.0 0.00 0.00 0.00 46 1013.6
20260831201842 101 360 3.0 9.0 0.00 0.00 0.00 46 1013.6
20260831201321 101 360 3.0 9.0 0.00 0.00 0.00 46 1013.8
20260831200820 102 360 3.0 12.0 0.00 0.00 0.00 44 1013.8
20260831200320 102 360 6.0 12.0 0.00 0.00 0.00 47 1013.8
20260831195818 101 360 6.0 11.0 0.00 0.00 0.00 48 1013.8
20260831195315 100 360 3.0 11.0 0.00 0.00 0.00 49 1014.0
20260831194827 99 360 4.0 11.0 0.00 0.00 0.00 49 1014.1
20260831194326 99 360 2.0 11.0 0.00 0.00 0.00 47 1014.2
20260831193825 100 360 5.0 12.0 0.00 0.00 0.00 45 1014.3
20260831193325 100 360 6.0 11.0 0.00 0.00 0.00 50 1014.3
20260831192841 100 360 5.0 12.0 0.00 0.00 0.00 46 1014.3
20260831192339 100 360 5.0 12.0 0.00 0.00 0.00 47 1014.5
20260831191811 99 360 4.0 12.0 0.00 0.00 0.00 51 1014.5
20260831191330 99 360 5.0 12.0 0.00 0.00 0.00 47 1014.6
20260831190851 99 360 3.0 9.0 0.00 0.00 0.00 52 1014.7
20260831190350 99 360 3.0 9.0 0.00 0.00 0.00 53 1014.7
20260831185848 99 360 4.0 9.0 0.00 0.00 0.00 49 1014.8
20260831185327 99 360 3.0 9.0 0.00 0.00 0.00 49 1014.9
20260831184827 98 360 2.0 9.0 0.00 0.00 0.00 49 1014.9
20260831184348 99 360 3.0 9.0 0.00 0.00 0.00 49 1015.0
20260831183847 99 360 2.0 11.0 0.00 0.00 0.00 51 1015.1
20260831183325 98 360 4.0 11.0 0.00 0.00 0.00 52 1015.2
20260831182812 98 360 4.0 10.0 0.00 0.00 0.00 52 1015.2
20260831182328 98 360 5.0 10.0 0.00 0.00 0.00 52 1015.3
20260831181829 98 360 3.0 12.0 0.00 0.00 0.00 51 1015.4
20260831181327 98 360 5.0 11.0 0.00 0.00 0.00 51 1015.4
20260831180827 97 360 3.0 8.0 0.00 0.00 0.00 58 1015.3
20260831180325 96 360 2.0 8.0 0.00 0.00 0.00 57 1015.4
20260831175843 96 360 3.0 10.0 0.00 0.00 0.00 54 1015.4
20260831175342 96 360 4.0 10.0 0.00 0.00 0.00 56 1015.5
20260831174841 96 360 3.0 12.0 0.00 0.00 0.00 59 1015.6
20260831174319 95 360 5.0 12.0 0.00 0.00 0.00 61 1015.9
20260831173833 94 360 5.0 9.0 0.00 0.00 0.00 59 1015.9
20260831173312 93 360 1.0 4.0 0.00 0.00 0.00 65 1015.9
20260831172831 93 360 2.0 4.0 0.00 0.00 0.00 64 1016.0
20260831172330 92 360 2.0 9.0 0.00 0.00 0.00 63 1016.1
20260831171826 93 360 4.0 10.0 0.00 0.00 0.00 61 1016.2
20260831171326 94 360 5.0 10.0 0.00 0.00 0.00 62 1016.1
20260831170825 94 360 5.0 8.0 0.00 0.00 0.00 61 1016.2
20260831170322 94 360 1.0 6.0 0.00 0.00 0.00 63 1016.3
20260831165843 93 360 4.0 11.0 0.00 0.00 0.00 61 1016.3
20260831165321 92 360 4.0 10.0 0.00 0.00 0.00 64 1016.3
20260831164821 92 360 2.0 5.0 0.00 0.00 0.00 65 1016.3
20260831164318 92 360 1.0 6.0 0.00 0.00 0.00 67 1016.3
20260831163816 92 360 2.0 12.0 0.00 0.00 0.00 67 1016.4
20260831163312 93 360 6.0 12.0 0.00 0.00 0.00 62 1016.4
20260831162812 93 360 3.0 8.0 0.00 0.00 0.00 63 1016.3
20260831162330 92 360 2.0 8.0 0.00 0.00 0.00 67 1016.3
20260831161828 91 360 3.0 10.0 0.00 0.00 0.00 70 1016.4
20260831161327 92 360 3.0 10.0 0.00 0.00 0.00 68 1016.5
20260831160825 91 360 2.0 9.0 0.00 0.00 0.00 72 1016.4
20260831160344 90 360 4.0 10.0 0.00 0.00 0.00 70 1016.3
20260831155822 90 360 5.0 10.0 0.00 0.00 0.00 70 1016.4
20260831155342 90 360 6.0 10.0 0.00 0.00 0.00 72 1016.4
20260831154840 89 360 2.0 10.0 0.00 0.00 0.00 72 1016.3
20260831154317 89 360 3.0 9.0 0.00 0.00 0.00 75 1016.3
20260831153817 88 360 1.0 6.0 0.00 0.00 0.00 79 1016.3
20260831153318 88 360 3.0 8.0 0.00 0.00 0.00 78 1016.3
20260831152816 88 360 4.0 10.0 0.00 0.00 0.00 76 1016.3
20260831152335 88 360 4.0 9.0 0.00 0.00 0.00 77 1016.3
20260831151831 88 360 3.0 9.0 0.00 0.00 0.00 78 1016.3
20260831151329 87 360 4.0 11.0 0.00 0.00 0.00 78 1016.3
20260831150826 87 360 4.0 11.0 0.00 0.00 0.00 80 1016.2
20260831150342 86 360 3.0 8.0 0.00 0.00 0.00 80 1016.2
20260831145820 86 360 2.0 8.0 0.00 0.00 0.00 82 1016.2
20260831145320 86 360 3.0 10.0 0.00 0.00 0.00 84 1016.2
20260831144839 85 360 5.0 9.0 0.00 0.00 0.00 83 1016.1
20260831144317 85 360 2.0 6.0 0.00 0.00 0.00 85 1016.2
20260831143815 85 360 3.0 6.0 0.00 0.00 0.00 88 1016.1
20260831143313 84 360 2.0 8.0 0.00 0.00 0.00 88 1016.1
20260831142853 84 360 3.0 8.0 0.00 0.00 0.00 91 1016.0
20260831142331 83 360 1.0 2.0 0.00 0.00 0.00 94 1016.0
20260831141848 82 360 1.0 2.0 0.00 0.00 0.00 95 1016.0
20260831141327 81 360 1.0 3.0 0.00 0.00 0.00 96 1016.0
20260831140846 81 360 2.0 3.0 0.00 0.00 0.00 97 1016.0
20260831140324 80 360 0.0 2.0 0.00 0.00 0.00 98 1016.0
20260831135824 79 360 0.0 3.0 0.00 0.00 0.00 98 1016.0
20260831135322 79 360 1.0 3.0 0.00 0.00 0.00 99 1015.9
20260831134822 78 360 0.0 2.0 0.00 0.00 0.00 99 1015.8
20260831134321 78 360 1.0 2.0 0.00 0.00 0.00 99 1015.8
20260831133821 77 360 0.0 2.0 0.00 0.00 0.00 99 1015.8
20260831133318 77 360 0.0 2.0 0.00 0.00 0.00 99 1015.8
20260831132837 76 360 0.0 2.0 0.00 0.00 0.00 99 1015.7
20260831132316 75 360 0.0 3.0 0.00 0.00 0.00 99 1015.6
20260831131815 75 360 1.0 3.0 0.00 0.00 0.00 98 1015.7
20260831131316 74 360 0.0 1.0 0.00 0.00 0.00 98 1015.6
20260831130818 74 360 0.0 0.0 0.00 0.00 0.00 98 1015.5
20260831130316 74 360 0.0 0.0 0.00 0.00 0.00 98 1015.6
20260831125815 74 360 0.0 0.0 0.00 0.00 0.00 97 1015.5
20260831125313 74 360 0.0 0.0 0.00 0.00 0.00 97 1015.5
20260831124813 73 360 0.0 0.0 0.00 0.00 0.00 97 1015.5
20260831124312 73 360 0.0 0.0 0.00 0.00 0.00 97 1015.4
20260831123847 73 360 0.0 0.0 0.00 0.00 0.00 97 1015.3
20260831123324 73 360 0.0 0.0 0.00 0.00 0.00 97 1015.2
20260831122823 73 360 0.0 0.0 0.00 0.00 0.00 97 1015.1
20260831122323 73 360 0.0 0.0 0.00 0.00 0.00 97 1015.1
20260831121843 73 360 0.0 0.0 0.00 0.00 0.00 96 1015.1
20260831121321 73 360 0.0 0.0 0.00 0.00 0.00 96 1014.9
20260831120821 73 360 0.0 0.0 0.00 0.00 0.00 96 1015.0
20260831120321 73 360 0.0 0.0 0.00 0.00 0.00 96 1015.0
20260831115822 73 360 0.0 0.0 0.00 0.00 0.00 96 1015.0
20260831115342 73 360 0.0 0.0 0.00 0.00 0.00 96 1015.0
20260831114820 74 360 0.0 0.0 0.00 0.00 0.00 96 1015.0
20260831114318 74 360 0.0 0.0 0.00 0.00 0.00 96 1014.9
20260831113836 74 360 0.0 0.0 0.00 0.00 0.00 96 1014.9
20260831113336 74 360 0.0 0.0 0.00 0.00 0.00 96 1014.9
20260831112815 74 360 0.0 0.0 0.00 0.00 0.00 96 1014.9
20260831112312 74 360 0.0 0.0 0.00 0.00 0.00 96 1014.9
20260831111831 74 360 0.0 0.0 0.00 0.00 0.00 96 1014.9
20260831111330 74 360 0.0 0.0 0.00 0.00 0.00 96 1014.9
20260831110829 74 360 0.0 0.0 0.00 0.00 0.00 96 1015.0
20260831110329 74 360 0.0 0.0 0.00 0.00 0.00 96 1015.0
20260831105827 74 360 0.0 0.0 0.00 0.00 0.00 96 1015.0
20260831105327 74 360 0.0 0.0 0.00 0.00 0.00 96 1014.9
20260831104312 74 360 0.0 0.0 0.00 0.00 0.00 95 1014.8
20260831102329 75 360 0.0 0.0 0.00 0.00 0.00 95 1014.8
20260831101827 75 360 0.0 0.0 0.00 0.00 0.00 95 1014.8
20260831101327 75 360 0.0 0.0 0.00 0.00 0.00 96 1014.9
20260831100825 75 360 0.0 0.0 0.00 0.00 0.00 95 1014.9
20260831100325 75 360 0.0 0.0 0.00 0.00 0.00 96 1014.9
20260831095825 75 360 0.0 0.0 0.00 0.00 0.00 95 1014.9
20260831095324 75 360 0.0 0.0 0.00 0.00 0.00 95 1014.9
20260831094824 75 360 0.0 0.0 0.00 0.00 0.00 95 1015.0
20260831094323 76 360 0.0 0.0 0.00 0.00 0.00 95 1015.0
20260831093825 76 360 0.0 0.0 0.00 0.00 0.00 95 1015.0
20260831093323 76 360 0.0 0.0 0.00 0.00 0.00 95 1014.9
20260831092822 76 360 0.0 0.0 0.00 0.00 0.00 95 1014.9
20260831092321 76 360 0.0 0.0 0.00 0.00 0.00 95 1014.9
20260831091822 76 360 0.0 0.0 0.00 0.00 0.00 95 1014.8
20260831091320 76 360 0.0 0.0 0.00 0.00 0.00 95 1014.8
20260831090819 76 360 0.0 0.0 0.00 0.00 0.00 95 1014.8
20260831090319 76 360 0.0 0.0 0.00 0.00 0.00 94 1014.8
20260831085817 76 360 0.0 0.0 0.00 0.00 0.00 94 1014.8
20260831085320 76 360 0.0 0.0 0.00 0.00 0.00 94 1014.8
20260831084821 76 360 0.0 1.0 0.00 0.00 0.00 94 1014.8
20260831084340 76 360 0.0 1.0 0.00 0.00 0.00 94 1014.8
20260831083818 76 360 0.0 0.0 0.00 0.00 0.00 93 1014.8
20260831083318 77 360 0.0 0.0 0.00 0.00 0.00 93 1014.9
20260831082818 77 360 0.0 0.0 0.00 0.00 0.00 93 1014.8
20260831082336 77 360 0.0 0.0 0.00 0.00 0.00 93 1014.8
20260831081815 77 360 0.0 0.0 0.00 0.00 0.00 93 1014.8
20260831081334 77 360 0.0 0.0 0.00 0.00 0.00 93 1014.9
20260831080812 77 360 0.0 0.0 0.00 0.00 0.00 93 1014.9
20260831080330 77 360 0.0 0.0 0.00 0.00 0.00 93 1014.9
20260831075829 77 360 0.0 0.0 0.00 0.00 0.00 92 1014.9
20260831075328 77 360 0.0 0.0 0.00 0.00 0.00 92 1015.0
20260831074828 78 360 0.0 1.0 0.00 0.00 0.00 92 1014.9
20260831074327 78 360 0.0 1.0 0.00 0.00 0.00 91 1014.9
20260831073847 78 360 0.0 1.0 0.00 0.00 0.00 91 1014.9
20260831073352 78 360 0.0 2.0 0.00 0.00 0.00 91 1015.0
20260831072845 78 360 0.0 2.0 0.00 0.00 0.00 90 1015.0
20260831072324 78 360 0.0 2.0 0.00 0.00 0.00 90 1015.0
20260831071822 79 360 0.0 1.0 0.00 0.00 0.00 90 1015.0
20260831071320 79 360 0.0 2.0 0.00 0.00 0.00 89 1015.0
20260831070839 79 360 0.0 3.0 0.00 0.00 0.00 89 1015.1
20260831070319 79 360 1.0 3.0 0.00 0.00 0.00 89 1015.1
20260831065818 79 360 1.0 3.0 0.00 0.00 0.00 89 1015.1
20260831065319 79 360 1.0 3.0 0.00 0.00 0.00 88 1015.1
20260831064839 80 360 1.0 2.0 0.00 0.00 0.00 88 1015.1
20260831064316 80 360 1.0 4.0 0.00 0.00 0.00 88 1015.2
20260831063836 80 360 2.0 4.0 0.00 0.00 0.00 88 1015.2
20260831063314 80 360 2.0 4.0 0.00 0.00 0.00 87 1015.2
20260831062813 80 360 1.0 3.0 0.00 0.00 0.00 87 1015.2
20260831062354 81 360 1.0 3.0 0.00 0.00 0.00 86 1015.1
20260831061852 81 360 1.0 4.0 0.00 0.00 0.00 86 1015.1
20260831061330 81 360 2.0 4.0 0.00 0.00 0.00 86 1015.0
20260831060829 81 360 1.0 4.0 0.00 0.00 0.00 85 1015.0
20260831060327 81 360 2.0 6.0 0.00 0.00 0.00 85 1015.0
20260831055820 81 360 3.0 8.0 0.00 0.00 0.00 85 1015.0
20260831055319 81 360 3.0 8.0 0.00 0.00 0.00 85 1015.0
20260831054819 82 360 2.0 5.0 0.00 0.00 0.00 84 1014.9
20260831054318 82 360 2.0 5.0 0.00 0.00 0.00 83 1015.0
20260831053817 82 360 2.0 5.0 0.00 0.00 0.00 83 1014.9
20260831053315 82 360 2.0 6.0 0.00 0.00 0.00 83 1014.8
20260831052814 82 360 3.0 8.0 0.00 0.00 0.00 83 1014.7
20260831052333 83 360 3.0 8.0 0.00 0.00 0.00 82 1014.7
20260831051831 83 360 3.0 6.0 0.00 0.00 0.00 82 1014.7
20260831051350 83 360 2.0 4.0 0.00 0.00 0.00 81 1014.6
20260831050847 83 360 2.0 9.0 0.00 0.00 0.00 81 1014.6
20260831050322 83 360 3.0 8.0 0.00 0.00 0.00 80 1014.6
20260831045820 84 360 4.0 8.0 0.00 0.00 0.00 80 1014.7
20260831045319 84 360 3.0 8.0 0.00 0.00 0.00 80 1014.6
20260831044819 84 360 3.0 9.0 0.00 0.00 0.00 79 1014.6
20260831044320 84 360 3.0 10.0 0.00 0.00 0.00 79 1014.6
20260831043819 84 360 5.0 12.0 0.00 0.00 0.00 78 1014.5
20260831043318 84 360 5.0 11.0 0.00 0.00 0.00 78 1014.5
20260831042818 85 360 3.0 11.0 0.00 0.00 0.00 78 1014.4
20260831042336 85 360 5.0 11.0 0.00 0.00 0.00 77 1014.5
20260831041851 85 360 4.0 9.0 0.00 0.00 0.00 77 1014.6
20260831041331 85 360 4.0 8.0 0.00 0.00 0.00 76 1014.6
20260831040830 85 360 4.0 10.0 0.00 0.00 0.00 76 1014.6
20260831040330 85 360 6.0 10.0 0.00 0.00 0.00 75 1014.5
20260831035829 86 360 6.0 10.0 0.00 0.00 0.00 75 1014.5
20260831035329 86 360 4.0 12.0 0.00 0.00 0.00 74 1014.4
20260831034828 86 360 5.0 12.0 0.00 0.00 0.00 74 1014.4
20260831034327 86 360 4.0 13.0 0.00 0.00 0.00 73 1014.3
20260831033825 86 360 5.0 11.0 0.00 0.00 0.00 72 1014.2
20260831033326 87 360 4.0 12.0 0.00 0.00 0.00 71 1014.1
20260831032826 87 360 5.0 12.0 0.00 0.00 0.00 70 1014.1
20260831032327 87 360 5.0 14.0 0.00 0.00 0.00 70 1014.1
20260831031829 87 360 5.0 13.0 0.00 0.00 0.00 69 1014.0
20260831031327 87 360 4.0 10.0 0.00 0.00 0.00 68 1014.0
20260831030825 87 360 4.0 9.0 0.00 0.00 0.00 68 1013.9
20260831030323 87 360 4.0 9.0 0.00 0.00 0.00 67 1013.8
20260831025842 87 360 3.0 8.0 0.00 0.00 0.00 66 1013.7
20260831025322 88 360 4.0 10.0 0.00 0.00 0.00 66 1013.6
20260831024843 88 360 4.0 11.0 0.00 0.00 0.00 66 1013.5
20260831024321 88 360 4.0 11.0 0.00 0.00 0.00 66 1013.4
20260831023820 88 360 4.0 11.0 0.00 0.00 0.00 66 1013.3
20260831023318 88 360 4.0 9.0 0.00 0.00 0.00 66 1013.3
20260831022815 88 360 3.0 10.0 0.00 0.00 0.00 66 1013.2
20260831022336 88 360 3.0 12.0 0.00 0.00 0.00 66 1013.1
20260831021815 88 360 4.0 9.0 0.00 0.00 0.00 66 1013.0
20260831021314 89 360 3.0 8.0 0.00 0.00 0.00 65 1012.8
20260831020835 89 360 5.0 10.0 0.00 0.00 0.00 65 1012.8
20260831020332 89 360 3.0 10.0 0.00 0.00 0.00 65 1012.7
20260831015830 89 360 3.0 9.0 0.00 0.00 0.00 65 1012.6
20260831015350 89 360 4.0 9.0 0.00 0.00 0.00 65 1012.6
20260831014316 89 360 3.0 10.0 0.00 0.00 0.00 64 1012.5
20260831013815 90 360 4.0 12.0 0.00 0.00 0.00 64 1012.4
20260831013316 90 360 4.0 12.0 0.00 0.00 0.00 64 1012.3
20260831012849 90 360 3.0 11.0 0.00 0.00 0.00 63 1012.3
20260831012327 90 360 5.0 10.0 0.00 0.00 0.00 63 1012.3
20260831011825 91 360 3.0 10.0 0.00 0.00 0.00 63 1012.2
20260831011323 91 360 4.0 12.0 0.00 0.00 0.00 63 1012.2
20260831010822 91 360 3.0 12.0 0.00 0.00 0.00 62 1012.1
20260831010341 92 360 4.0 14.0 0.00 0.00 0.00 60 1012.0
20260831005818 92 360 3.0 15.0 0.00 0.00 0.00 59 1012.0
20260831005314 93 360 7.0 15.0 0.00 0.00 0.00 58 1011.9
20260831004815 93 360 4.0 15.0 0.00 0.00 0.00 57 1011.9
20260831004314 93 360 6.0 11.0 0.00 0.00 0.00 56 1011.9
20260831003813 94 360 3.0 13.0 0.00 0.00 0.00 54 1011.8
20260831003314 94 360 5.0 13.0 0.00 0.00 0.00 53 1011.6
20260831002814 95 360 4.0 8.0 0.00 0.00 0.00 51 1011.5
20260831002313 95 360 4.0 11.0 0.00 0.00 0.00 50 1011.4
20260831001813 95 360 5.0 8.0 0.00 0.00 0.00 50 1011.4
20260831001315 95 360 2.0 6.0 0.00 0.00 0.00 51 1011.4
20260831000815 95 360 1.0 8.0 0.00 0.00 0.00 50 1011.3
20260831000314 96 360 1.0 8.0 0.00 0.00 0.00 50 1011.2
20260830235815 96 360 3.0 12.0 0.00 0.00 0.00 49 1011.2
20260830235315 96 360 2.0 12.0 0.00 0.00 0.00 48 1011.2
20260830234817 97 360 3.0 13.0 0.00 0.00 0.00 49 1011.3
20260830234317 97 360 4.0 13.0 0.00 0.00 0.00 48 1011.3
20260830233817 98 360 2.0 10.0 0.00 0.00 0.00 46 1011.4
20260830233317 98 360 3.0 10.0 0.00 0.00 0.00 46 1011.4
20260830232837 98 360 3.0 11.0 0.00 0.00 0.00 46 1011.5
20260830232314 99 360 5.0 11.0 0.00 0.00 0.00 44 1011.4
20260830231813 100 360 4.0 10.0 0.00 0.00 0.00 44 1011.4
20260830231332 100 360 3.0 5.0 0.00 0.00 0.00 44 1011.5
20260830230832 101 360 0.0 5.0 0.00 0.00 0.00 50 1011.5
20260830230331 100 360 2.0 5.0 0.00 0.00 0.00 46 1011.5
20260830225812 100 360 1.0 5.0 0.00 0.00 0.00 51 1011.5
20260830225331 100 360 1.0 4.0 0.00 0.00 0.00 46 1011.6
20260830224832 100 360 1.0 4.0 0.00 0.00 0.00 50 1011.6
20260830224332 100 360 3.0 9.0 0.00 0.00 0.00 43 1011.6
20260830223814 100 360 3.0 8.0 0.00 0.00 0.00 43 1011.7
20260830223313 100 360 3.0 8.0 0.00 0.00 0.00 45 1011.6
20260830222812 101 360 3.0 10.0 0.00 0.00 0.00 46 1011.7
20260830222353 102 360 2.0 11.0 0.00 0.00 0.00 44 1011.7
20260830221830 101 360 5.0 11.0 0.00 0.00 0.00 44 1011.6
20260830221329 101 360 3.0 8.0 0.00 0.00 0.00 46 1011.6
20260830220828 100 360 3.0 9.0 0.00 0.00 0.00 46 1011.6
20260830220327 99 360 3.0 9.0 0.00 0.00 0.00 47 1011.7